Regional Weather Roundup
Issued by NWS

Home | Current Version | Previous Version | Graphics & Text | Print | Product List | Glossary On
Versions: 1 2 3 4 5 6 7 8 9 10 11 12 13 14 15 16 17 18 19 20 21 22 23 24 25 26 27 28 29 30 31 32 33 34 35 36 37 38 39 40 41 42 43 44 45 46 47 48 49 50
000
ASUS43 KLMK 191210
RWRKY
KENTUCKY REGIONAL WEATHER ROUNDUP
NATIONAL WEATHER SERVICE LOUISVILLE KY
700 AM EST THU JAN 19 2017

NOTE "FAIR" INDICATES FEW OR NO CLOUDS BELOW 12,000 FEET
WITH NO SIGNIFICANT WEATHER AND/OR OBSTRUCTIONS TO VISIBILITY.

KYZ001>023-026-027-061>063-070>075-191300-
WESTERN AND SOUTH CENTRAL KENTUCKY

CITY           SKY/WX    TMP DP  RH WIND       PRES   REMARKS
PADUCAH        CLOUDY    46  43  89 E5        29.96S
HENDERSON      CLOUDY    43  36  75 E7        30.00F
OWENSBORO      CLOUDY    44  39  82 E7        30.03S
HOPKINSVILLE   CLOUDY    45  45 100 E7        29.99F FOG
BOWLING GREEN  CLOUDY    46  41  82 S5        30.04S
GLASGOW        CLOUDY    44  43  95 E3        30.02F FOG
$$

KYZ024-025-028>034-038-045-046-053-191300-
NORTH CENTRAL KENTUCKY

CITY           SKY/WX    TMP DP  RH WIND       PRES   REMARKS
LOUISVILLE/SDF CLOUDY    42  36  79 CALM      30.07F
LOUISVILLE/LOU CLOUDY    42  36  79 CALM      30.08F
FORT KNOX      CLOUDY    40  38  93 NE7       30.03F WCI  35
$$

KYZ035>037-039>044-047>052-055>060-089>105-191300-
NORTHEAST KENTUCKY

CITY           SKY/WX    TMP DP  RH WIND       PRES   REMARKS
LEXINGTON      CLOUDY    40  36  86 SE6       30.07S
COVINGTON      CLOUDY    37  36  96 E7        30.07F WCI  32
FRANKFORT      CLOUDY    39  35  86 CALM      30.07S
$$

KYZ054-064>069-076>088-106>120-191300-
SOUTHEAST KENTUCKY

CITY           SKY/WX    TMP DP  RH WIND       PRES   REMARKS
JACKSON        PTCLDY    38  35  89 NE3       30.07F
LONDON         PTCLDY    39  36  89 CALM      30.07R
SOMERSET       CLOUDY    37  37 100 CALM      30.07F
MIDDLESBORO    PTCLDY    38  38 100 CALM      30.10S
MONTICELLO     CLOUDY    42  40  92 VRB7      30.07S
$$




USA.gov is the U.S. government's official web portal to all federal, state and local government web resources and services.